Wind_Speed
14 14 14 14 15 15 15 14 12 11 11 9 8 6 5 4 2 2 5 7 8 10 11 12 6 2 3 3 5 6 9 12 13 14 14 15 17 17 18 18 18 16 14 11 8 6 6 6 6 7 8 9 10 10 10 9 8 7 5 3 1 2 3 4 6 6 8 10 12 12 12 13 12 10 9 8 8 8 9 11 10 9 10 15 17 18 19 19
14 14 14 13 14 14 14 14 13 12 11 10 9 7 6 5 3 2 4 6 7 9 10 10 5 2 4 4 5 6 9 12 12 12 13 15 17 17 17 18 17 15 12 10 7 6 6 6 7 8 9 10 10 11 11 10 9 9 7 5 3 1 1 3 6 5 6 7 8 11 12 12 11 9 9 8 7 8 9 10 10 11 15 19 21 21 20 20
14 13 13 13 13 13 13 13 13 12 12 12 10 8 7 6 4 3 3 6 7 8 9 9 5 3 5 5 6 7 9 12 12 11 12 14 16 16 18 18 17 15 12 9 8 7 7 8 9 10 11 12 13 13 12 10 10 9 8 9 5 1 3 3 6 6 6 6 6 9 12 12 12 10 10 8 7 7 7 7 7 9 16 21 21 22 22 20
14 13 13 12 13 13 12 12 12 12 12 13 12 10 9 7 5 4 3 5 6 7 8 9 4 4 6 6 7 7 10 12 12 12 12 14 16 17 18 17 16 14 11 9 8 8 10 11 12 13 13 14 14 15 12 10 11 9 8 9 5 1 3 5 6 7 7 6 5 8 11 12 13 12 10 10 8 6 5 4 4 5 11 17 20 23 24 21
14 13 12 12 12 12 12 12 12 12 12 14 15 13 11 9 7 6 4 5 6 7 7 8 4 5 6 6 8 8 10 11 12 12 13 15 17 18 17 16 15 13 11 9 9 9 11 12 13 13 14 14 16 17 12 9 9 7 7 7 3 2 3 5 6 6 7 7 6 6 7 10 12 12 11 10 6 3 3 4 4 5 5 11 19 24 24 21
14 13 13 12 11 11 12 12 11 11 12 14 16 16 14 12 9 7 6 5 6 6 6 8 5 5 6 6 8 9 10 10 12 13 15 17 17 18 16 15 14 12 11 9 10 10 11 12 13 14 14 13 16 20 14 9 7 4 5 5 3 3 4 5 6 6 5 6 6 4 5 9 12 11 10 9 5 3 6 5 4 7 5 7 18 25 23 20
14 13 13 12 11 11 11 11 11 11 11 13 16 18 17 14 12 10 8 6 6 7 6 6 5 4 6 7 9 11 10 10 13 14 15 18 18 18 17 16 14 11 10 9 10 11 12 12 12 14 13 12 16 18 14 8 6 4 3 3 4 5 5 6 7 8 7 6 7 6 6 8 10 10 9 9 8 8 8 6 5 8 9 10 16 22 20 18
14 13 13 12 11 11 11 11 11 11 11 12 15 18 19 18 15 12 10 8 7 7 7 6 5 3 6 8 10 11 10 11 14 14 15 18 19 19 18 16 14 11 9 9 11 12 11 11 13 13 12 12 15 16 11 6 5 4 3 5 6 6 6 7 8 9 10 9 9 8 8 8 9 9 9 9 9 10 8 6 6 8 10 11 15 19 20 19
14 14 13 12 12 11 10 10 10 11 11 12 13 17 20 21 19 16 14 11 9 8 8 8 5 4 6 8 10 11 10 12 15 15 16 19 20 20 18 15 13 11 9 9 11 11 10 10 11 12 11 11 14 13 9 6 6 5 2 6 7 6 5 7 7 8 9 9 9 9 9 9 10 9 9 9 10 9 7 6 7 7 8 10 13 17 19 20
14 13 13 12 12 11 11 10 10 10 11 11 12 14 18 21 22 20 17 15 12 10 9 9 7 5 6 8 11 11 12 14 16 18 17 19 22 20 18 15 12 10 8 9 11 10 9 8 8 9 8 10 12 10 8 5 6 4 2 7 7 6 5 5 6 7 8 9 8 8 7 7 8 8 8 8 9 8 7 6 7 7 7 8 10 14 17 18
14 13 13 12 12 11 11 10 10 10 11 11 12 13 15 19 22 22 21 19 16 13 12 10 9 7 6 8 10 11 13 15 16 19 20 21 23 21 18 15 12 9 7 8 8 7 7 5 5 7 7 8 9 8 8 4 4 2 2 7 7 6 5 4 6 7 8 8 9 8 7 6 7 7 6 7 7 7 6 5 6 6 6 7 8 11 14 15
15 14 13 12 12 11 11 11 10 10 10 11 11 12 14 16 19 22 23 22 19 17 15 12 11 9 8 8 7 11 15 16 16 20 22 23 23 20 18 16 13 10 7 7 4 2 5 5 4 5 5 6 6 5 8 3 3 1 2 5 6 5 5 5 6 7 8 8 8 8 7 7 6 6 7 8 7 8 7 5 5 6 7 7 7 9 11 12
15 14 13 12 12 11 11 11 10 10 10 10 11 11 13 14 16 19 21 22 22 20 17 15 13 11 10 8 7 13 17 18 18 20 23 26 24 22 21 19 16 13 9 7 4 4 5 5 3 4 4 5 4 3 7 4 3 4 4 2 3 4 5 6 6 7 8 8 8 7 5 4 5 6 8 8 8 8 7 4 4 5 7 7 7 8 8 10
16 15 14 13 12 11 11 11 11 10 10 10 11 11 12 13 15 16 19 21 22 21 19 17 15 13 11 8 9 15 18 19 19 21 23 26 26 25 23 20 17 13 9 6 5 5 5 6 6 4 3 4 4 3 7 5 3 6 7 4 2 3 3 6 6 6 8 7 7 6 3 3 5 6 7 8 8 8 6 5 4 4 6 7 6 6 6 8
16 15 14 13 12 11 11 11 11 10 10 10 11 11 12 12 13 15 17 19 20 21 20 19 17 15 12 10 10 13 17 20 21 21 23 26 28 27 23 19 17 13 9 6 6 6 6 8 8 5 4 4 5 5 6 5 4 7 8 7 5 3 4 7 6 4 6 6 6 4 2 4 5 5 6 7 8 8 6 5 5 5 5 6 6 6 6 7
16 15 15 14 13 12 11 11 12 11 10 10 11 11 12 12 13 14 16 18 19 20 20 19 17 16 13 11 11 11 14 20 21 22 24 25 26 26 21 18 16 13 10 8 9 9 9 10 10 8 6 5 6 7 5 4 6 8 10 10 8 5 5 8 7 6 8 8 6 4 4 5 5 5 6 6 7 8 7 7 6 6 6 6 6 7 8 8
16 15 15 14 14 12 11 11 11 11 10 10 11 11 12 12 13 14 16 17 19 19 20 19 17 16 14 10 10 10 13 19 22 22 25 24 24 23 21 19 16 14 12 11 12 12 10 10 11 9 8 8 9 8 5 6 8 8 10 11 10 8 8 9 8 8 10 10 7 5 6 7 6 6 5 5 6 7 7 7 7 7 7 8 7 7 8 10
16 15 15 14 14 13 12 11 11 11 10 10 11 11 12 13 13 14 15 17 18 19 19 19 18 16 14 11 11 12 14 19 24 25 26 25 23 22 22 21 17 16 15 13 12 11 10 10 11 10 11 12 12 11 9 8 8 10 11 11 11 11 11 11 9 9 10 10 9 8 8 8 7 7 6 5 5 6 7 7 7 7 8 9 10 10 9 10
16 15 15 14 14 13 12 11 11 11 10 10 11 12 13 14 13 14 15 17 18 19 18 18 19 17 13 12 13 16 17 19 23 26 26 25 24 23 23 22 20 18 17 15 12 11 11 11 13 15 16 14 11 10 10 9 11 14 16 15 14 13 13 12 10 9 9 10 10 9 9 9 8 7 6 5 5 5 6 7 8 8 9 10 11 12 11 10
15 15 14 14 14 13 12 11 11 11 10 11 12 13 13 13 13 14 14 15 16 18 19 18 19 18 15 14 15 19 21 20 21 24 25 26 26 24 24 24 23 21 20 16 12 12 13 14 18 21 17 11 9 9 10 12 13 15 17 17 16 15 15 12 12 12 11 11 10 8 8 9 9 7 6 6 5 5 4 4 6 7 8 9 10 11 12 11
15 14 14 14 14 13 11 11 11 10 11 12 12 13 13 12 12 12 13 13 15 18 20 19 18 17 17 16 17 20 22 22 22 22 24 27 27 25 25 26 25 24 20 16 14 14 15 19 22 21 15 11 10 9 10 12 13 15 16 17 17 15 14 11 12 15 14 13 10 9 9 9 9 9 9 8 5 3 2 3 3 4 5 6 8 9 11 11
14 14 14 13 13 13 11 10 10 10 11 12 12 12 13 12 12 12 13 13 14 16 18 20 20 17 18 18 19 22 23 22 23 23 25 27 29 26 25 27 27 24 19 16 16 16 18 23 22 17 13 11 9 9 10 12 14 16 16 17 16 12 11 11 12 15 16 16 13 12 11 9 9 11 10 9 6 5 4 4 4 5 5 5 6 7 9 11
14 14 13 13 13 12 11 10 10 10 11 12 12 12 12 12 12 11 13 14 13 16 18 20 21 18 19 20 21 22 22 20 19 24 27 28 29 28 25 25 26 23 19 19 19 18 21 23 19 14 11 10 8 9 12 14 15 15 16 17 15 11 11 13 14 15 18 18 16 14 13 11 12 12 12 10 9 8 7 7 7 7 6 6 6 7 9 9
15 14 13 13 13 12 11 10 10 11 11 12 11 11 12 12 12 11 13 16 13 15 18 19 20 19 20 22 23 23 21 18 17 21 27 30 30 29 26 24 24 23 21 20 20 21 24 21 14 12 11 8 10 12 14 14 13 12 14 14 13 13 13 14 15 17 20 21 20 16 13 15 17 15 12 12 11 10 10 8 7 7 8 8 8 8 9 9
16 14 13 12 12 12 11 10 10 11 10 11 10 10 11 11 11 11 12 16 13 11 17 19 18 18 21 24 25 23 22 19 16 19 26 30 31 30 27 23 23 23 21 20 20 24 26 20 14 13 11 10 12 11 10 10 10 10 11 13 13 13 14 15 17 19 20 21 23 19 10 10 16 18 13 13 13 12 11 10 8 7 7 7 7 8 10 10
16 15 13 12 12 11 11 10 10 10 10 10 10 9 10 10 10 11 11 15 13 7 14 18 17 16 21 26 26 24 22 18 15 18 25 29 29 30 27 24 23 22 21 19 19 24 26 21 17 15 13 11 10 8 5 5 8 8 9 9 11 15 17 19 21 21 20 18 17 20 15 8 11 16 14 14 15 13 13 11 9 9 7 6 6 7 10 10
17 16 14 12 12 11 10 11 10 9 9 10 9 8 8 8 8 9 9 10 9 5 9 16 17 15 20 27 26 24 18 14 15 19 24 26 27 28 26 24 24 21 20 19 18 23 26 23 19 16 13 11 8 3 2 4 7 6 5 6 11 18 20 23 24 22 21 16 10 17 21 14 14 15 12 16 17 15 16 13 11 11 8 6 6 7 9 10
17 17 14 13 13 11 9 10 10 9 9 9 9 7 5 5 5 5 4 3 2 1 6 14 18 15 19 26 27 24 15 11 17 20 21 22 23 27 26 24 22 20 18 19 21 23 24 22 19 16 14 12 7 1 5 6 7 7 7 7 10 15 20 24 25 25 23 16 10 15 19 13 14 16 11 15 21 19 19 16 12 11 8 7 7 7 9 11
18 17 15 13 13 12 10 10 10 9 10 9 8 6 4 3 3 3 2 1 1 2 4 11 17 16 18 25 28 25 17 12 15 18 19 20 21 24 25 21 19 18 17 19 25 25 22 20 17 15 15 11 6 2 6 5 6 9 10 8 9 13 19 22 23 27 22 13 14 18 19 12 10 17 13 13 18 15 14 16 15 13 10 9 8 7 9 11
17 18 16 14 13 13 11 10 10 10 10 10 9 7 5 4 4 2 1 1 1 2 2 8 14 15 17 24 28 27 21 14 13 16 19 20 20 20 19 18 15 16 16 19 26 28 23 20 18 16 14 12 8 5 5 4 8 11 10 8 8 11 17 19 20 23 14 9 20 23 21 14 7 17 18 14 11 7 6 9 15 16 13 12 10 8 9 11
17 18 17 15 14 12 11 11 10 9 10 11 10 9 7 5 4 3 2 2 3 6 2 8 12 13 17 22 26 27 24 16 12 16 20 21 22 21 19 19 18 16 16 19 26 29 27 25 21 18 14 12 11 9 6 6 11 10 9 8 6 8 10 11 11 13 6 6 17 18 18 18 12 16 19 16 13 9 6 4 9 14 14 13 12 10 8 9
16 17 16 15 14 12 12 12 10 10 11 12 11 10 9 6 7 9 4 2 3 5 5 8 9 10 15 20 25 26 25 20 14 16 18 20 23 25 22 21 20 16 14 19 24 27 29 28 22 17 15 14 15 14 9 8 11 11 11 9 7 8 5 4 4 5 7 10 11 8 10 17 19 21 19 19 21 16 9 2 4 11 13 13 12 10 8 8
15 16 15 15 14 12 12 12 10 10 12 13 13 13 12 6 6 13 9 2 3 3 5 3 6 11 15 19 25 26 25 22 18 15 15 17 21 23 23 20 20 17 11 14 20 22 24 26 24 20 17 16 17 17 12 8 9 12 13 11 8 7 4 1 2 0 6 14 14 9 7 10 17 21 20 21 21 18 14 6 7 12 13 13 12 9 8 9
15 16 14 13 14 13 12 12 11 12 13 14 15 15 14 10 5 9 11 6 3 3 2 4 5 12 16 18 22 26 26 24 21 18 15 15 18 22 24 23 21 20 14 11 15 16 15 17 20 20 18 15 14 15 12 9 9 11 13 12 11 10 6 3 5 5 6 7 7 9 8 7 15 18 17 17 15 14 13 10 13 16 16 16 15 12 10 9
13 15 13 12 13 13 12 12 12 12 14 16 17 17 19 17 9 4 7 8 8 8 6 5 4 10 15 17 18 22 25 24 23 23 19 17 19 20 22 24 23 22 20 16 14 13 13 16 17 16 16 15 13 11 10 11 12 10 12 14 11 12 11 7 8 12 11 4 5 11 11 11 17 18 15 13 12 11 10 12 18 19 18 18 17 14 11 9
12 13 11 10 11 11 11 12 12 13 15 16 18 21 22 19 12 5 4 5 7 8 6 3 1 4 11 15 16 19 22 22 21 22 22 21 21 20 20 22 23 24 23 21 17 11 11 19 21 16 17 17 15 12 11 12 12 9 11 14 11 10 12 9 7 8 7 4 5 10 10 11 14 13 12 11 12 12 12 14 20 19 18 18 16 15 12 10
10 11 9 8 8 9 10 11 12 13 15 16 19 21 20 17 13 9 6 5 6 8 8 6 5 4 4 10 15 18 19 20 20 20 22 21 19 22 23 22 22 24 23 21 19 15 13 18 22 18 17 17 16 16 15 15 13 11 12 14 11 9 10 9 4 3 3 1 4 8 9 11 9 7 9 12 13 13 13 16 21 20 19 19 17 14 10 9
9 9 7 6 7 8 9 9 11 13 15 16 19 19 17 16 14 12 11 11 11 12 12 10 5 3 2 2 6 14 18 20 20 20 22 20 16 18 22 22 20 21 20 18 19 19 16 17 19 16 14 14 16 19 19 17 15 14 13 13 12 8 6 8 5 1 1 1 1 3 7 11 13 11 9 9 10 11 12 18 23 21 20 19 17 14 11 11
7 8 7 8 9 8 8 9 10 13 15 16 17 16 13 11 9 8 9 11 14 14 12 10 6 3 3 3 1 6 12 18 21 21 21 21 19 17 19 20 20 18 18 20 20 19 17 16 16 12 8 9 13 19 21 19 17 16 14 12 13 10 5 6 6 3 3 2 1 2 3 6 12 13 8 5 6 7 11 17 19 19 19 19 17 14 12 12
7 8 9 11 10 7 6 7 8 11 14 14 13 12 9 8 8 7 7 9 11 12 11 9 8 6 6 5 2 1 6 13 19 21 21 21 22 20 18 18 18 17 17 20 21 20 19 18 18 13 5 7 8 16 19 19 19 19 18 16 15 13 8 6 6 6 4 3 3 1 2 5 6 7 7 6 5 6 9 12 13 14 16 18 17 14 13 11
8 11 12 13 10 7 6 6 7 8 8 7 7 7 7 8 8 6 7 10 12 12 11 10 8 7 7 6 4 3 2 8 14 21 24 23 24 23 19 17 16 17 18 22 25 24 23 22 23 20 11 8 6 12 13 14 16 17 18 17 16 16 13 7 5 8 7 3 4 4 2 4 3 3 5 6 6 7 9 10 11 12 14 16 15 13 12 10
10 13 13 14 12 9 8 7 7 8 6 3 4 4 4 4 3 4 6 10 10 10 11 9 6 6 6 4 3 5 4 5 10 19 24 24 24 23 20 17 16 16 17 21 25 25 24 24 23 24 18 10 5 8 10 10 12 14 14 14 13 13 14 11 6 9 10 6 4 5 2 3 3 4 5 6 8 9 9 11 12 13 14 14 14 13 11 10
11 13 13 15 14 11 10 7 7 8 5 3 6 6 4 3 1 1 3 5 5 6 8 8 5 5 5 4 3 4 7 8 8 13 17 18 19 18 17 18 20 19 18 19 22 24 24 23 20 20 18 11 3 6 10 9 11 13 12 11 11 10 12 12 8 9 11 8 5 4 2 4 4 4 5 7 9 11 12 12 13 14 16 16 15 13 11 11
11 13 13 16 15 12 11 8 8 9 6 6 7 6 5 3 1 1 2 3 2 3 6 6 4 5 4 4 4 5 6 7 6 6 8 11 12 10 12 17 21 24 22 19 21 25 25 24 21 12 6 4 4 6 9 10 11 13 12 11 10 8 9 9 7 8 10 9 7 4 3 5 5 4 5 7 10 13 14 14 15 17 18 18 16 14 12 12
11 13 14 16 16 15 12 10 9 8 7 9 8 6 5 4 1 1 1 4 4 4 4 4 2 3 4 3 4 4 3 5 5 5 6 9 10 9 10 13 17 22 23 19 18 23 26 26 25 16 6 5 5 6 10 12 12 13 12 11 9 8 7 7 7 9 8 9 11 8 6 7 7 7 8 7 9 12 13 14 16 18 20 19 17 14 13 13
12 14 14 15 17 17 14 11 12 9 7 9 8 5 5 5 5 4 2 5 5 5 4 4 4 3 3 3 4 4 5 5 5 4 5 7 9 9 9 10 13 15 19 21 19 21 25 27 26 23 18 14 12 11 14 15 14 15 13 11 10 8 7 7 9 9 7 8 13 13 11 11 10 9 9 7 8 10 12 14 15 17 20 19 17 15 14 14
12 14 16 15 15 16 15 13 13 10 8 8 7 4 4 4 4 5 4 4 4 4 5 5 4 2 3 3 4 5 7 7 5 1 1 4 6 7 8 9 10 12 15 22 22 20 23 26 25 25 23 19 16 15 16 17 15 14 13 11 9 7 8 8 8 8 7 8 11 11 11 13 11 9 9 8 7 8 11 13 13 15 18 18 16 15 15 15
12 14 16 16 14 14 15 15 14 10 8 8 7 5 3 2 3 4 4 4 4 3 5 6 5 3 4 5 4 5 9 9 3 3 3 2 2 5 8 9 11 13 15 20 24 23 22 24 24 25 24 21 18 17 17 17 15 14 12 11 10 8 8 8 8 8 8 9 9 9 10 13 11 9 9 8 7 7 8 9 11 14 16 17 17 16 15 16
11 14 15 17 16 14 14 15 15 12 10 9 8 7 4 3 4 4 3 1 2 2 4 8 8 4 3 6 6 6 9 9 3 3 3 2 3 3 6 9 11 15 18 20 24 24 22 21 23 25 24 21 19 17 18 17 15 13 11 10 10 9 9 9 9 9 10 11 11 11 12 13 11 11 10 8 7 9 10 11 13 15 15 16 16 15 16 17
10 13 15 17 17 15 13 13 13 13 12 11 10 8 6 5 5 3 3 4 2 1 2 5 9 6 3 5 7 7 8 8 4 4 5 2 3 5 4 6 11 16 19 22 24 26 23 20 21 22 21 20 18 16 15 14 12 12 11 11 11 11 11 11 11 11 11 11 11 10 12 12 10 11 11 9 10 13 14 14 13 14 15 16 15 16 16 18
11 11 14 17 18 18 16 13 12 12 12 12 11 10 7 6 6 5 5 4 3 1 0 1 6 8 5 6 8 9 10 9 4 5 6 5 4 5 5 9 13 16 18 21 23 25 23 20 21 22 19 18 16 14 13 11 10 10 11 12 13 13 13 13 14 13 13 12 10 9 9 8 6 7 8 9 12 15 16 14 13 14 16 16 17 18 19 19
12 11 13 16 17 19 19 16 14 13 13 12 12 11 9 7 7 7 6 5 2 1 1 2 2 6 5 6 11 12 11 9 5 5 6 6 6 9 9 13 16 16 19 22 21 21 22 21 22 21 17 16 15 12 11 9 7 7 9 11 13 13 13 12 13 12 11 11 9 8 7 5 3 4 5 7 10 13 15 14 13 13 15 17 19 21 21 20
Wind_Direction
304 300 298 296 292 286 280 276 271 262 256 259 260 245 233 221 227 304 319 328 340 344 351 353 346 175 149 139 135 103 105 116 118 121 130 140 145 145 144 145 146 144 136 129 119 106 90 71 60 40 32 26 18 16 14 7 354 347 347 346 328 169 153 150 161 169 167 172 177 178 180 180 183 179 168 163 154 150 154 157 154 154 163 171 178 185 187 179
307 303 300 298 296 291 282 273 267 258 247 245 246 237 230 217 214 267 314 323 337 344 350 355 347 182 159 154 150 128 122 127 126 129 139 149 152 146 139 138 138 134 131 128 116 104 86 66 51 35 26 19 16 13 8 0 352 344 339 344 344 265 164 123 128 146 158 164 174 175 176 180 184 180 174 179 175 166 169 170 163 162 169 176 179 180 187 183
313 308 303 299 297 295 288 277 266 256 243 235 235 228 224 216 211 232 297 316 330 342 349 356 343 192 173 169 162 148 138 136 133 136 145 156 159 149 139 137 136 135 132 127 113 94 70 51 38 29 23 15 10 10 11 2 353 348 347 356 354 291 215 153 121 121 144 167 180 177 179 182 185 186 186 195 205 193 185 176 163 163 171 180 182 179 188 186
320 314 308 302 297 295 293 284 269 258 243 231 228 223 217 213 209 220 266 303 322 337 345 354 343 200 187 181 172 159 149 143 139 142 151 159 160 151 143 140 140 136 127 116 101 78 59 46 34 28 23 17 11 11 12 360 352 352 354 354 351 341 195 172 134 125 138 161 185 184 183 185 185 186 194 206 218 220 201 170 140 156 176 190 190 181 188 187
325 319 313 307 301 295 293 288 275 262 247 232 225 221 216 212 209 214 243 280 307 327 337 350 341 208 201 192 183 168 156 153 150 149 155 160 157 151 149 146 139 130 120 109 92 71 53 41 32 27 22 21 21 16 9 352 349 360 4 356 358 62 169 171 151 140 135 152 176 194 193 192 189 187 199 209 219 253 232 186 139 141 175 209 198 184 188 188
327 323 318 311 306 299 293 290 281 266 252 236 226 222 218 214 210 212 230 259 288 313 325 345 339 226 211 196 188 175 165 166 163 160 162 163 159 158 158 151 138 127 120 104 87 69 52 40 30 22 19 23 20 12 7 354 349 7 15 11 45 104 156 160 148 137 123 137 152 176 190 192 191 188 195 198 194 223 234 224 155 143 156 196 194 187 189 188
326 325 321 315 309 303 295 290 284 273 257 242 230 225 222 218 216 216 227 244 267 295 307 334 338 253 217 190 182 178 171 169 172 171 167 164 166 170 167 157 145 133 122 107 90 72 55 40 28 22 22 23 13 8 8 1 360 23 52 59 82 116 138 138 136 128 123 128 133 147 159 171 184 185 185 185 192 210 222 222 176 157 163 171 182 189 192 191
324 324 322 317 312 306 299 291 285 278 264 249 236 229 226 224 222 221 227 237 250 276 290 311 325 266 226 195 185 184 172 171 178 179 171 166 168 170 166 160 153 141 128 115 93 71 55 40 32 31 27 19 10 9 10 10 20 30 85 91 93 120 135 139 141 136 133 133 135 141 142 153 172 181 186 195 209 217 214 212 195 174 170 166 171 184 193 194
322 322 321 316 312 308 302 295 286 280 270 256 243 233 229 228 227 226 229 234 242 258 275 290 306 282 245 213 196 190 177 179 183 182 178 172 170 168 165 163 158 148 138 118 92 70 55 41 35 31 27 19 11 13 16 28 37 21 102 104 94 113 130 145 149 148 140 136 139 143 148 157 169 180 187 200 218 224 211 197 200 191 173 167 166 174 187 193
321 320 320 316 312 308 304 298 288 281 274 263 251 240 234 230 230 231 231 235 239 249 262 274 288 288 266 232 209 193 182 185 186 184 182 179 177 172 170 168 164 158 144 120 95 69 50 36 29 23 29 27 16 23 22 32 56 27 135 117 101 107 118 147 153 154 148 143 145 145 153 162 172 182 187 198 214 222 213 192 198 205 182 173 169 167 176 183
323 319 318 315 310 308 305 300 291 282 276 269 259 247 239 233 232 233 233 236 238 244 253 262 272 279 277 252 217 191 184 185 188 188 183 181 179 175 172 172 170 167 151 129 104 63 36 14 5 9 25 29 20 33 19 13 93 59 142 118 110 116 117 143 153 154 148 146 151 151 165 180 178 177 179 194 212 218 216 197 197 210 198 188 180 169 169 170
325 319 317 314 309 307 304 301 294 285 277 271 264 254 245 237 234 233 234 237 238 241 246 254 262 267 272 263 217 188 188 186 188 190 185 180 179 180 181 181 181 182 173 157 140 15 352 342 340 350 4 15 5 22 19 13 142 149 165 109 107 128 125 141 155 158 155 157 163 164 180 197 188 177 179 187 202 214 218 208 193 206 209 198 191 181 172 170
326 321 317 314 308 305 304 300 296 287 278 271 266 260 251 243 236 233 233 235 237 239 242 247 254 261 265 262 219 195 191 186 187 189 186 183 184 189 189 186 186 187 186 179 192 286 311 309 291 304 329 354 334 347 14 18 166 203 217 118 113 145 144 154 162 170 170 170 173 178 196 195 181 181 182 183 195 210 219 221 195 195 208 205 200 197 187 183
327 322 317 315 309 302 302 300 296 288 279 271 266 262 255 248 240 234 231 232 235 237 239 243 248 255 260 258 228 205 194 188 188 188 188 187 189 192 191 187 187 191 194 193 220 256 271 271 261 259 280 312 288 283 345 338 224 222 235 245 198 178 188 175 168 178 180 177 175 190 212 181 180 185 178 179 192 208 219 230 223 205 207 209 212 212 204 194
326 323 319 315 311 302 300 300 297 289 280 271 265 261 258 251 244 237 231 229 230 233 235 238 242 250 255 253 237 215 201 192 186 188 191 191 192 192 191 188 188 196 200 191 204 220 230 244 246 239 243 271 257 257 315 311 246 233 235 247 243 234 231 200 191 199 195 187 184 194 192 171 183 180 172 176 182 195 208 219 230 230 223 217 216 221 221 210
323 324 320 316 313 304 299 300 297 291 281 271 264 260 257 254 248 240 233 227 226 228 230 232 235 243 248 249 238 219 203 191 185 191 193 194 195 193 190 186 186 192 190 184 191 202 221 236 239 238 241 248 243 253 296 287 250 239 236 251 260 258 246 220 207 211 215 207 195 189 165 162 173 168 169 173 173 184 197 206 215 226 233 231 223 220 223 222
320 323 321 318 314 306 299 300 298 292 281 270 263 259 256 253 248 243 235 227 224 224 226 226 229 236 241 247 232 205 190 185 186 192 194 197 199 195 192 188 188 192 188 189 198 203 220 236 234 232 238 240 238 245 262 259 254 254 249 253 261 259 251 240 223 213 220 215 202 190 166 157 157 157 164 167 172 181 187 197 204 211 224 230 229 223 218 221
317 320 320 318 314 307 300 299 299 292 280 269 262 256 254 252 248 245 239 230 223 221 223 223 223 227 233 239 220 190 180 182 185 190 193 197 200 198 197 194 194 197 194 195 201 206 219 233 233 229 231 231 232 239 246 265 286 295 287 276 274 266 251 246 235 220 220 211 200 193 177 165 156 154 165 169 169 174 180 193 199 203 214 221 226 226 221 222
313 316 318 318 314 309 301 299 300 292 279 268 260 255 253 254 253 250 245 236 227 221 220 219 217 218 223 228 215 192 186 187 185 189 192 194 198 200 200 199 199 200 201 200 201 208 221 231 229 225 224 227 235 246 258 288 305 306 302 293 287 279 266 254 238 228 227 214 198 185 173 172 169 163 169 175 170 171 178 188 193 197 204 211 219 221 221 222
308 312 315 315 314 311 302 298 299 291 280 266 259 257 257 259 259 256 252 244 235 225 220 218 217 216 216 223 216 196 191 192 187 188 192 193 197 201 202 203 202 203 203 199 198 209 226 233 224 219 220 229 246 259 277 298 303 303 302 296 289 282 277 267 246 237 234 225 207 183 178 180 180 180 186 192 192 189 180 177 186 189 193 203 211 215 218 217
302 306 310 312 313 312 304 297 296 290 279 267 261 261 263 266 265 265 262 252 241 232 223 219 219 213 211 218 215 199 195 197 191 187 191 193 196 200 202 205 205 206 204 198 200 211 227 231 218 213 222 238 253 264 282 294 298 302 305 304 296 282 277 274 257 243 237 234 219 201 198 187 181 189 197 201 191 170 171 160 170 184 188 195 200 205 208 205
297 300 305 309 310 311 306 295 291 287 276 270 268 266 269 272 272 271 268 257 243 237 229 220 218 210 205 213 212 206 205 204 197 192 192 193 196 200 202 206 208 208 204 203 208 214 226 224 212 214 233 243 250 264 279 290 295 301 306 300 287 273 266 255 243 239 236 236 229 221 214 195 191 202 202 201 183 156 175 182 174 182 185 190 194 199 200 199
293 294 299 304 306 309 307 294 286 283 275 274 273 271 273 275 278 280 277 271 251 237 231 222 218 209 202 207 210 212 214 209 202 197 195 195 197 202 203 205 210 210 206 207 213 220 224 221 217 224 230 228 244 274 289 294 296 295 296 289 270 256 250 228 214 221 229 233 234 231 228 215 206 212 208 199 192 181 180 188 186 181 174 180 193 197 200 200
292 290 292 298 302 305 305 294 282 280 275 275 275 273 276 279 285 292 294 289 266 235 229 224 218 206 199 204 208 213 217 215 211 204 200 198 198 202 204 204 209 211 209 209 216 224 223 218 221 218 210 232 272 293 297 294 292 283 273 263 240 231 234 216 205 212 219 229 235 234 244 238 219 216 213 200 204 201 192 199 199 184 176 183 193 192 190 191
291 288 287 292 296 300 303 294 278 277 276 275 274 273 276 281 290 301 307 301 285 236 225 224 216 203 196 202 207 209 215 219 218 210 206 203 200 202 204 203 207 211 212 212 218 226 224 215 216 218 226 264 283 289 296 291 282 264 247 235 217 225 238 220 206 209 211 223 232 227 241 254 225 219 218 208 214 213 205 212 210 200 199 195 194 193 189 187
290 287 285 286 289 294 300 293 276 271 272 270 271 274 276 281 293 304 308 303 296 247 219 219 213 204 198 202 205 205 215 222 211 207 209 207 204 204 204 204 208 211 213 215 222 228 224 214 219 233 248 269 274 276 292 283 267 251 241 237 216 221 235 222 206 204 208 218 230 224 223 255 248 231 221 218 225 224 222 226 217 215 219 206 198 201 200 194
289 286 284 283 284 286 292 293 278 265 262 260 264 270 274 280 291 304 307 302 294 245 213 209 203 202 200 203 205 203 212 213 194 201 207 207 207 205 204 206 210 213 211 217 227 228 223 219 225 238 249 260 261 273 327 271 262 255 260 261 221 210 216 217 210 205 211 217 226 223 223 245 271 257 230 223 229 230 231 231 223 224 226 206 206 210 207 202
286 284 283 281 282 281 283 288 277 262 254 253 258 258 265 278 287 302 311 319 323 183 199 200 195 196 198 201 205 205 209 200 191 200 202 205 209 206 205 207 213 217 213 219 226 221 222 227 232 239 250 255 238 245 342 293 256 250 268 270 232 215 214 216 215 214 216 219 224 223 219 231 267 266 244 227 234 239 240 237 225 224 224 212 212 214 209 205
283 280 279 278 279 280 280 282 276 260 247 243 246 239 239 261 273 290 288 301 11 123 180 190 189 194 197 198 204 207 208 195 192 198 193 194 202 204 209 212 215 220 218 223 224 218 222 231 235 240 247 245 221 262 315 295 260 257 265 257 224 218 220 217 218 218 213 217 236 230 217 214 265 273 263 239 240 250 254 243 229 223 222 215 215 216 212 208
282 278 275 273 274 276 276 278 273 256 239 232 231 224 220 239 251 250 242 248 49 68 191 186 184 193 199 200 201 203 203 192 189 196 192 193 197 200 209 212 216 224 226 228 225 220 223 230 235 237 237 235 235 263 280 286 283 261 245 231 204 206 216 210 210 211 201 231 245 237 223 214 263 286 279 267 263 295 308 248 225 221 220 215 216 220 218 214
282 278 274 269 268 272 271 270 270 254 233 224 222 217 213 227 227 194 185 190 94 54 88 172 179 195 204 203 200 198 198 193 186 192 196 198 201 204 207 209 213 221 230 233 228 225 226 229 233 231 228 236 254 264 252 276 286 253 220 213 174 157 185 187 188 194 185 255 250 244 233 216 227 274 289 294 287 294 308 259 214 216 218 214 216 222 225 218
279 278 275 268 262 266 264 262 266 251 229 219 215 212 209 215 220 213 203 134 124 60 86 156 184 203 206 206 203 199 197 194 186 188 198 203 206 209 211 211 212 213 227 234 229 230 229 227 228 230 229 237 259 268 258 268 273 241 219 209 162 117 127 158 169 192 220 240 246 251 223 212 234 268 291 291 282 274 269 256 185 210 216 215 215 221 230 225
275 274 274 268 261 258 255 257 260 246 226 212 208 207 204 202 226 225 220 137 119 76 72 135 208 206 206 207 205 204 203 201 196 192 201 209 212 214 215 217 218 216 221 229 230 236 234 226 225 232 234 237 253 260 254 258 253 229 220 206 174 133 100 188 209 6 251 243 247 243 208 216 250 272 284 280 279 277 263 233 177 196 207 213 216 218 230 231
274 271 272 267 259 253 248 250 252 240 220 207 203 200 200 204 226 232 227 228 249 268 335 329 246 209 211 211 207 206 207 206 207 208 210 212 215 217 217 218 221 221 222 223 228 236 240 234 228 231 237 239 244 245 243 251 250 239 232 223 206 187 170 191 203 198 216 233 232 202 189 223 242 256 275 279 286 286 267 226 189 191 201 209 213 214 223 228
273 271 271 263 253 250 246 245 246 233 214 204 199 198 205 213 218 236 235 237 256 267 282 314 277 218 215 215 212 210 210 210 211 215 219 219 220 222 221 220 219 220 221 221 223 227 241 245 230 222 229 232 235 240 244 249 251 251 237 229 228 215 209 203 192 200 203 170 146 177 193 228 233 243 265 275 277 276 267 226 198 193 201 208 210 214 223 224
271 268 268 256 245 244 244 241 236 223 211 203 200 206 217 221 220 232 246 241 259 276 289 331 42 204 212 213 215 212 211 213 214 216 222 225 230 232 229 226 222 219 217 215 216 218 237 244 233 223 227 226 232 245 247 243 243 242 228 225 226 218 214 205 173 178 182 160 176 192 213 237 238 247 259 257 257 258 254 223 197 193 202 207 209 215 223 220
267 264 260 248 234 230 234 232 224 215 207 205 208 216 226 230 229 234 246 259 279 295 306 326 28 63 180 205 215 215 211 214 216 219 223 226 233 234 229 226 222 219 216 212 218 223 236 244 238 233 234 231 237 245 243 241 240 234 229 225 217 203 206 206 178 115 119 171 207 206 232 249 244 252 260 252 247 250 244 210 192 195 204 207 209 212 216 211
255 255 244 220 206 205 212 218 216 210 205 208 215 223 232 238 240 245 253 265 274 279 288 297 325 37 68 158 210 216 215 216 216 218 223 227 233 231 224 220 215 213 212 210 219 228 236 245 242 237 244 248 243 240 237 234 235 238 238 229 219 213 206 201 193 121 149 234 266 234 251 255 246 244 253 248 239 243 233 204 196 201 207 210 212 208 207 205
240 235 209 185 184 191 201 210 208 203 203 209 218 225 233 243 248 253 257 260 263 265 269 275 274 278 330 12 80 206 219 223 221 220 224 226 229 228 219 215 212 205 205 210 218 225 230 242 246 237 261 279 240 226 226 221 218 228 234 229 227 232 228 207 205 196 174 177 235 287 281 260 250 244 232 218 222 229 222 208 203 205 207 213 214 209 207 206
220 207 189 178 185 194 199 201 195 194 201 210 221 229 240 253 251 245 249 248 247 248 250 255 260 276 319 347 28 189 224 230 229 228 229 228 231 232 221 215 215 208 206 214 222 226 226 234 241 233 268 307 234 209 215 215 214 220 222 221 224 226 220 209 217 216 190 161 163 173 279 263 250 232 206 202 211 208 212 215 211 207 209 214 214 213 213 214
206 195 186 183 189 194 186 174 165 172 186 203 226 239 250 260 250 226 228 239 237 235 238 245 253 277 317 343 22 45 243 238 234 232 233 233 236 239 229 218 221 217 213 218 223 224 223 227 236 237 255 295 238 201 204 214 220 222 223 224 227 229 225 212 211 210 201 194 172 163 231 252 213 199 204 212 217 203 199 211 218 216 215 215 213 213 216 225
202 193 187 189 191 190 188 172 149 144 136 149 200 212 222 234 234 205 214 231 234 233 234 238 252 281 312 339 25 31 352 290 252 236 235 237 240 244 239 232 234 230 224 223 222 221 222 227 236 242 254 282 271 213 203 208 216 218 222 227 226 230 228 222 218 202 192 190 182 170 209 241 203 214 219 212 220 217 204 206 215 221 222 221 216 216 223 235
200 193 189 192 193 194 196 179 153 146 136 172 192 181 178 185 162 145 187 210 223 223 225 233 262 292 319 339 327 325 321 308 275 242 238 241 245 250 250 246 244 239 231 226 221 215 214 220 231 243 253 262 250 189 187 188 197 200 201 206 208 213 219 226 235 209 191 188 181 162 204 241 225 235 240 223 221 223 220 217 215 217 221 222 222 225 232 239
201 193 190 193 195 199 200 183 166 168 176 192 186 168 169 173 62 54 132 146 151 170 200 224 271 291 299 311 293 281 292 294 272 239 244 252 253 257 255 249 246 242 236 229 219 208 204 210 218 229 252 233 167 140 152 156 166 174 170 173 186 188 196 214 224 204 197 203 197 182 223 247 248 257 263 244 225 223 227 229 224 218 218 222 226 231 238 246
203 194 192 194 195 198 202 195 186 189 197 196 182 163 170 170 174 226 140 108 108 123 168 191 230 270 271 268 252 236 249 271 269 269 275 267 262 267 257 241 237 238 235 232 222 208 204 210 213 211 193 179 182 155 150 151 156 162 158 159 166 164 172 188 191 192 205 213 209 212 246 262 265 269 270 254 230 225 228 234 233 225 220 223 229 237 246 255
204 198 195 196 196 199 207 208 201 203 210 202 185 164 176 184 193 209 174 120 108 96 116 150 177 232 260 251 245 239 238 260 281 298 295 277 265 262 252 229 222 224 224 227 222 207 207 213 215 218 217 207 203 188 173 171 171 166 160 160 164 164 170 175 181 194 212 220 220 232 254 264 269 275 273 255 236 235 234 236 239 232 225 224 229 239 250 256
203 201 199 196 198 203 210 212 208 210 215 205 191 176 187 201 207 212 190 140 104 99 125 133 135 175 219 217 223 229 238 261 288 343 288 279 272 264 252 226 209 202 208 220 220 210 211 215 216 222 226 221 216 202 186 183 184 180 175 176 175 174 180 182 188 203 211 219 233 246 255 261 271 279 275 265 256 254 244 238 239 233 226 224 230 242 251 253
203 203 203 200 201 206 211 213 213 215 218 212 209 213 230 266 264 235 192 141 94 112 158 155 133 136 187 187 181 214 235 255 277 102 129 184 252 267 250 224 203 196 200 214 219 215 216 219 220 220 219 218 216 208 198 196 195 190 187 191 194 197 203 209 217 224 227 239 258 269 263 269 282 284 279 281 276 265 253 239 231 226 222 224 232 244 252 254
206 205 206 206 208 211 213 217 217 218 223 226 230 236 248 282 287 267 234 170 95 111 164 177 171 149 161 184 185 206 233 248 267 61 70 157 176 206 225 217 205 201 204 210 214 214 214 216 218 215 209 207 207 203 199 200 200 199 197 203 214 220 226 234 241 245 252 263 274 278 274 279 287 282 274 268 248 237 230 222 221 220 218 223 235 249 256 256
213 208 207 210 214 216 217 220 221 221 224 229 234 238 244 266 269 255 266 285 280 161 159 190 192 182 169 196 196 189 207 233 272 348 354 327 179 161 168 196 195 196 203 205 204 205 204 199 199 199 191 186 188 190 189 192 201 208 212 219 231 241 250 254 258 260 262 271 277 275 275 282 286 280 268 246 227 223 221 220 221 219 219 230 246 258 260 261
219 216 213 213 217 220 221 222 222 223 224 226 232 234 236 254 258 242 244 270 279 252 333 229 203 195 189 209 217 202 193 205 256 311 317 311 250 207 167 162 173 183 192 191 190 196 197 183 178 182 176 170 177 185 188 196 211 221 227 233 237 244 252 256 260 263 264 272 275 269 275 289 287 267 257 241 227 221 220 223 224 221 227 239 251 257 261 266
223 223 221 221 222 223 225 227 226 226 227 227 231 233 231 234 245 245 232 218 223 277 307 310 228 202 201 217 225 218 203 198 225 278 287 291 263 231 188 160 163 174 180 178 178 188 194 186 178 179 176 173 179 187 190 196 212 219 224 235 240 243 248 254 260 264 264 266 269 268 279 300 292 250 252 247 233 225 224 229 231 233 239 246 250 255 261 266
Height
3150 3149 3149 3148 3148 3148 3148 3148 3149 3149 3150 3150 3151 3151 3151 3152 3152 3152 3151 3151 3151 3150 3149 3148 3147 3147 3147 3147 3147 3147 3146 3146 3146 3147 3147 3147 3147 3147 3147 3148 3149 3150 3151 3152 3152 3153 3153 3153 3153 3153 3152 3152 3151 3151 3151 3151 3151 3151 3150 3150 3150 3150 3149 3149 3149 3149 3149 3149 3150 3150 3151 3152 3153 3154 3155 3156 3157 3158 3159 3160 3160 3160 3161 3161 3163 3165 3166 3167
3149 3148 3147 3147 3146 3146 3146 3146 3147 3148 3148 3149 3150 3150 3151 3151 3151 3151 3151 3151 3150 3150 3149 3149 3148 3148 3148 3148 3147 3147 3147 3148 3148 3148 3148 3148 3148 3148 3149 3150 3150 3151 3152 3153 3154 3154 3154 3154 3154 3153 3153 3153 3152 3152 3152 3151 3151 3151 3150 3150 3150 3150 3150 3150 3149 3149 3150 3150 3151 3151 3152 3153 3154 3155 3155 3156 3157 3158 3160 3160 3160 3160 3161 3161 3162 3165 3166 3167
3147 3147 3146 3146 3145 3145 3145 3145 3145 3146 3147 3148 3148 3149 3150 3150 3150 3151 3150 3150 3150 3150 3149 3149 3148 3148 3148 3148 3148 3148 3148 3148 3149 3149 3149 3149 3149 3150 3150 3151 3152 3152 3153 3154 3154 3155 3155 3154 3154 3154 3153 3153 3153 3152 3152 3152 3151 3151 3150 3150 3150 3150 3150 3150 3150 3150 3150 3151 3152 3152 3152 3153 3154 3155 3156 3157 3157 3159 3160 3161 3161 3161 3161 3162 3163 3165 3166 3168
3146 3146 3145 3144 3144 3143 3143 3143 3143 3144 3145 3146 3147 3148 3148 3149 3149 3150 3150 3150 3150 3149 3149 3148 3148 3148 3148 3148 3148 3148 3149 3149 3150 3150 3150 3150 3150 3151 3152 3152 3153 3153 3154 3155 3155 3155 3155 3155 3154 3154 3154 3153 3153 3152 3152 3152 3152 3151 3151 3151 3151 3151 3151 3151 3151 3151 3151 3151 3152 3153 3153 3154 3154 3155 3156 3157 3158 3159 3160 3161 3162 3162 3163 3163 3164 3165 3167 3168
3145 3145 3144 3143 3143 3142 3142 3142 3142 3142 3143 3144 3145 3146 3147 3148 3148 3149 3149 3149 3149 3149 3149 3148 3148 3148 3148 3148 3148 3149 3149 3150 3151 3151 3151 3151 3151 3152 3153 3153 3154 3154 3155 3155 3156 3156 3156 3155 3155 3154 3154 3153 3153 3153 3152 3152 3152 3152 3152 3151 3151 3151 3151 3151 3151 3152 3152 3152 3153 3153 3154 3154 3155 3156 3156 3157 3158 3159 3160 3161 3162 3162 3163 3164 3165 3166 3167 3169
3144 3144 3143 3142 3141 3141 3141 3140 3140 3141 3141 3142 3143 3145 3145 3146 3147 3148 3148 3148 3148 3148 3148 3148 3148 3148 3148 3148 3148 3149 3150 3150 3151 3151 3152 3152 3152 3153 3153 3154 3155 3155 3155 3156 3156 3157 3156 3156 3155 3155 3154 3154 3154 3153 3153 3152 3152 3152 3152 3152 3152 3152 3152 3152 3152 3152 3153 3153 3154 3154 3154 3155 3155 3156 3157 3158 3159 3159 3159 3161 3162 3163 3164 3165 3166 3166 3168 3169
3143 3143 3142 3141 3140 3140 3139 3139 3139 3139 3140 3141 3142 3143 3144 3145 3146 3146 3147 3147 3147 3148 3148 3148 3147 3147 3148 3148 3148 3149 3149 3150 3151 3151 3152 3152 3153 3153 3154 3155 3155 3155 3156 3157 3157 3157 3157 3157 3157 3156 3156 3155 3155 3154 3153 3153 3153 3153 3153 3153 3153 3153 3152 3153 3153 3153 3153 3154 3154 3155 3155 3155 3156 3157 3158 3158 3159 3159 3159 3160 3162 3163 3164 3165 3166 3167 3169 3170
3142 3142 3141 3140 3139 3139 3138 3138 3138 3138 3138 3139 3140 3141 3142 3143 3144 3145 3145 3146 3146 3147 3147 3147 3147 3147 3147 3148 3148 3148 3149 3150 3150 3151 3152 3153 3153 3154 3154 3155 3155 3156 3157 3157 3158 3158 3158 3158 3157 3157 3156 3156 3155 3154 3154 3154 3154 3154 3154 3154 3153 3153 3153 3154 3154 3154 3154 3154 3155 3155 3156 3156 3157 3158 3158 3159 3159 3159 3159 3160 3161 3163 3164 3166 3167 3169 3170 3171
3141 3140 3140 3139 3138 3138 3137 3137 3137 3137 3137 3137 3138 3138 3140 3141 3142 3143 3144 3145 3145 3146 3146 3146 3147 3147 3147 3147 3148 3148 3149 3149 3150 3151 3152 3153 3154 3154 3155 3155 3156 3156 3157 3158 3158 3158 3158 3158 3158 3158 3157 3157 3156 3155 3155 3155 3155 3155 3155 3154 3154 3154 3154 3155 3155 3155 3155 3155 3155 3156 3156 3157 3157 3158 3158 3159 3159 3159 3159 3160 3161 3162 3164 3166 3167 3169 3170 3171
3140 3139 3138 3138 3137 3136 3136 3136 3135 3135 3135 3135 3136 3136 3137 3139 3140 3141 3142 3143 3144 3144 3145 3145 3146 3146 3146 3146 3147 3148 3148 3149 3149 3150 3151 3153 3154 3154 3155 3155 3156 3157 3157 3158 3158 3159 3159 3159 3159 3159 3158 3157 3157 3156 3156 3156 3156 3156 3156 3155 3155 3155 3155 3156 3156 3156 3156 3156 3156 3156 3157 3157 3157 3157 3158 3158 3158 3159 3160 3160 3161 3162 3163 3165 3167 3169 3170 3172
3139 3138 3137 3136 3136 3135 3135 3134 3134 3134 3134 3134 3134 3135 3135 3136 3137 3139 3140 3141 3142 3143 3143 3144 3144 3145 3145 3145 3146 3147 3148 3148 3149 3150 3151 3152 3154 3155 3155 3156 3157 3157 3158 3158 3159 3159 3159 3159 3159 3159 3158 3158 3158 3158 3157 3156 3156 3157 3157 3156 3156 3156 3156 3157 3157 3157 3157 3157 3157 3157 3157 3157 3157 3158 3158 3159 3159 3159 3160 3161 3161 3162 3163 3165 3166 3168 3170 3172
3138 3137 3136 3135 3134 3134 3133 3133 3133 3132 3132 3132 3133 3133 3133 3134 3135 3136 3138 3139 3140 3141 3142 3143 3143 3143 3144 3144 3145 3146 3147 3147 3148 3149 3150 3151 3153 3154 3155 3156 3156 3157 3158 3158 3159 3159 3159 3159 3159 3159 3159 3159 3158 3158 3158 3157 3157 3157 3158 3157 3157 3157 3157 3157 3157 3157 3158 3158 3157 3157 3157 3157 3158 3158 3159 3159 3159 3159 3160 3160 3161 3162 3163 3164 3165 3167 3169 3171
3137 3136 3135 3134 3133 3133 3132 3132 3131 3131 3131 3131 3131 3131 3132 3132 3133 3134 3135 3136 3138 3139 3140 3141 3141 3142 3142 3143 3144 3145 3145 3146 3147 3148 3150 3151 3152 3153 3154 3155 3155 3156 3157 3158 3159 3159 3158 3158 3159 3159 3159 3159 3159 3159 3158 3158 3158 3158 3158 3158 3158 3158 3158 3158 3158 3158 3158 3158 3158 3158 3158 3158 3158 3159 3159 3159 3159 3160 3160 3160 3161 3162 3163 3163 3165 3166 3168 3170
3136 3135 3134 3133 3132 3131 3131 3130 3130 3129 3129 3129 3129 3129 3130 3130 3131 3132 3133 3134 3135 3137 3138 3139 3140 3140 3141 3142 3142 3143 3144 3145 3147 3148 3149 3150 3151 3152 3153 3154 3155 3156 3157 3159 3159 3159 3158 3158 3158 3159 3159 3159 3159 3159 3159 3159 3159 3158 3159 3159 3158 3158 3159 3159 3159 3159 3159 3158 3158 3159 3159 3159 3159 3159 3159 3160 3160 3160 3160 3160 3161 3162 3163 3163 3164 3165 3166 3168
3135 3134 3133 3132 3131 3130 3129 3129 3128 3128 3128 3127 3127 3128 3128 3128 3129 3129 3130 3131 3133 3134 3135 3137 3138 3138 3139 3140 3140 3142 3143 3144 3146 3147 3149 3150 3150 3152 3153 3154 3155 3156 3157 3158 3158 3158 3158 3157 3158 3159 3159 3159 3159 3159 3159 3159 3159 3159 3159 3159 3159 3159 3159 3159 3159 3160 3160 3159 3159 3159 3159 3160 3160 3160 3160 3161 3161 3161 3161 3161 3161 3162 3163 3163 3164 3165 3166 3167
3134 3133 3131 3130 3129 3129 3128 3127 3127 3126 3126 3126 3126 3126 3126 3126 3127 3127 3128 3129 3130 3131 3133 3134 3136 3137 3137 3138 3139 3140 3141 3143 3145 3146 3147 3149 3150 3151 3153 3153 3154 3155 3156 3157 3157 3157 3157 3157 3157 3158 3158 3159 3160 3159 3159 3159 3159 3159 3159 3159 3159 3159 3159 3159 3160 3160 3160 3159 3159 3160 3160 3160 3160 3161 3161 3162 3161 3162 3162 3162 3162 3162 3163 3163 3164 3165 3166 3167
3133 3132 3130 3129 3128 3127 3127 3126 3125 3125 3124 3124 3124 3124 3124 3124 3125 3125 3126 3127 3128 3129 3131 3132 3134 3135 3135 3136 3137 3138 3140 3141 3143 3145 3146 3148 3150 3151 3151 3152 3153 3153 3155 3155 3156 3157 3157 3157 3157 3157 3158 3159 3159 3159 3159 3159 3159 3158 3158 3159 3159 3160 3160 3159 3160 3161 3160 3160 3160 3160 3161 3161 3161 3162 3162 3162 3162 3162 3163 3163 3163 3163 3164 3164 3164 3165 3166 3166
3131 3130 3129 3128 3127 3126 3125 3125 3124 3123 3123 3122 3122 3122 3122 3122 3123 3123 3124 3125 3126 3127 3128 3130 3132 3133 3134 3135 3136 3137 3138 3139 3141 3143 3144 3146 3148 3150 3150 3151 3152 3152 3153 3154 3155 3156 3156 3156 3156 3157 3157 3158 3158 3159 3159 3159 3159 3159 3158 3159 3160 3160 3160 3160 3160 3161 3161 3160 3160 3160 3161 3161 3162 3162 3162 3163 3163 3163 3163 3164 3164 3164 3164 3164 3165 3165 3166 3166
3130 3129 3128 3127 3126 3125 3124 3123 3123 3122 3121 3121 3120 3120 3120 3121 3121 3122 3122 3123 3124 3125 3126 3128 3129 3131 3132 3133 3134 3136 3137 3138 3139 3141 3142 3145 3147 3148 3149 3150 3150 3151 3152 3153 3154 3155 3155 3155 3155 3155 3155 3157 3158 3159 3159 3159 3159 3159 3157 3158 3159 3159 3159 3159 3160 3161 3161 3161 3161 3161 3161 3162 3162 3162 3163 3163 3163 3163 3163 3163 3164 3164 3164 3165 3165 3165 3166 3166
3128 3128 3127 3126 3125 3124 3123 3122 3121 3120 3120 3119 3119 3119 3119 3119 3120 3120 3121 3122 3123 3124 3124 3125 3127 3129 3130 3131 3132 3134 3135 3136 3138 3139 3141 3143 3145 3146 3147 3148 3149 3150 3151 3153 3154 3155 3154 3154 3153 3153 3155 3158 3159 3159 3159 3159 3159 3159 3157 3157 3158 3158 3157 3158 3160 3161 3161 3161 3161 3161 3162 3162 3162 3163 3163 3163 3163 3163 3164 3164 3164 3164 3164 3165 3165 3166 3166 3167
3127 3126 3125 3124 3123 3122 3122 3121 3120 3119 3118 3118 3118 3118 3118 3118 3119 3119 3119 3120 3121 3121 3122 3124 3125 3126 3128 3129 3130 3132 3133 3134 3136 3138 3139 3140 3142 3144 3145 3146 3148 3149 3150 3153 3153 3153 3153 3152 3150 3153 3156 3158 3158 3159 3159 3159 3158 3158 3157 3155 3156 3156 3156 3157 3159 3160 3161 3161 3161 3162 3162 3162 3162 3163 3163 3163 3163 3164 3164 3164 3164 3164 3164 3165 3165 3166 3167 3167
3125 3125 3124 3123 3122 3121 3120 3120 3119 3118 3117 3116 3117 3117 3117 3117 3117 3118 3117 3117 3118 3119 3120 3121 3122 3124 3126 3127 3128 3130 3131 3132 3134 3136 3137 3138 3140 3141 3143 3145 3146 3148 3150 3151 3151 3152 3152 3150 3150 3154 3156 3157 3158 3158 3158 3158 3157 3156 3156 3155 3154 3154 3156 3156 3158 3159 3161 3161 3161 3161 3161 3161 3162 3162 3162 3163 3163 3164 3164 3164 3164 3164 3165 3165 3165 3166 3167 3167
3123 3123 3122 3122 3121 3120 3119 3118 3118 3117 3116 3116 3116 3116 3116 3116 3116 3116 3116 3115 3115 3116 3117 3118 3120 3122 3124 3125 3126 3128 3129 3131 3133 3134 3135 3136 3138 3140 3141 3143 3145 3147 3149 3149 3150 3150 3149 3149 3151 3154 3155 3156 3157 3157 3157 3157 3156 3155 3155 3154 3153 3153 3155 3155 3156 3158 3160 3161 3161 3161 3161 3161 3161 3161 3161 3162 3163 3163 3163 3164 3164 3164 3164 3165 3165 3166 3166 3167
3121 3121 3121 3120 3119 3119 3118 3117 3117 3116 3115 3115 3115 3115 3115 3115 3115 3115 3115 3113 3112 3113 3114 3115 3117 3120 3122 3123 3124 3126 3128 3130 3132 3133 3133 3134 3136 3138 3140 3142 3144 3146 3147 3148 3149 3149 3147 3148 3151 3153 3154 3155 3156 3156 3155 3155 3154 3154 3153 3153 3152 3152 3154 3155 3156 3157 3159 3160 3160 3161 3161 3160 3159 3160 3160 3161 3162 3162 3163 3163 3163 3164 3164 3165 3165 3165 3166 3167
3119 3119 3119 3119 3118 3117 3117 3116 3115 3115 3115 3114 3114 3115 3115 3115 3114 3114 3114 3112 3110 3111 3112 3113 3115 3118 3120 3121 3122 3125 3127 3128 3130 3131 3132 3133 3135 3136 3139 3141 3142 3144 3146 3147 3147 3147 3146 3149 3151 3151 3153 3154 3153 3153 3153 3153 3152 3152 3152 3152 3152 3153 3154 3155 3156 3157 3158 3158 3158 3160 3161 3159 3157 3158 3159 3160 3160 3161 3162 3162 3162 3163 3164 3164 3165 3165 3166 3167
3117 3117 3117 3117 3117 3116 3115 3115 3114 3114 3114 3114 3114 3114 3114 3114 3114 3113 3113 3111 3109 3108 3109 3111 3114 3116 3117 3119 3120 3123 3125 3126 3128 3130 3130 3132 3134 3136 3138 3140 3141 3143 3145 3146 3146 3145 3145 3148 3149 3150 3151 3151 3151 3151 3152 3152 3151 3151 3151 3151 3152 3153 3154 3154 3154 3155 3156 3156 3157 3159 3160 3158 3156 3156 3158 3159 3159 3160 3161 3161 3162 3162 3163 3164 3165 3165 3166 3166
3115 3115 3115 3115 3115 3115 3114 3113 3113 3113 3113 3113 3113 3113 3114 3114 3114 3113 3113 3112 3108 3107 3108 3110 3112 3114 3115 3117 3119 3122 3124 3125 3126 3127 3128 3131 3133 3134 3136 3138 3140 3142 3143 3145 3144 3143 3144 3146 3148 3148 3149 3149 3149 3150 3151 3150 3150 3150 3150 3150 3151 3152 3152 3152 3153 3155 3155 3156 3157 3158 3159 3159 3156 3155 3157 3158 3158 3158 3159 3160 3161 3161 3162 3163 3164 3165 3165 3166
3113 3113 3113 3113 3113 3113 3113 3112 3112 3112 3112 3112 3112 3113 3113 3113 3113 3113 3113 3112 3108 3106 3107 3108 3110 3112 3114 3116 3118 3121 3123 3123 3125 3126 3127 3130 3132 3133 3135 3137 3139 3141 3142 3143 3142 3142 3144 3145 3146 3147 3147 3148 3148 3149 3150 3149 3149 3149 3150 3150 3150 3151 3152 3152 3154 3155 3156 3156 3157 3156 3159 3160 3156 3152 3154 3156 3155 3156 3156 3158 3160 3160 3161 3162 3163 3164 3165 3166
3111 3110 3111 3111 3111 3111 3111 3111 3111 3111 3111 3111 3112 3112 3113 3113 3113 3113 3114 3112 3107 3106 3107 3108 3110 3111 3113 3114 3117 3120 3122 3123 3124 3125 3127 3129 3130 3132 3134 3136 3138 3140 3141 3141 3140 3141 3143 3144 3145 3146 3146 3147 3147 3148 3149 3149 3149 3149 3150 3149 3149 3151 3151 3153 3155 3156 3157 3158 3155 3155 3157 3159 3155 3150 3152 3154 3153 3154 3154 3156 3159 3160 3161 3162 3162 3163 3164 3165
3108 3108 3108 3109 3109 3109 3109 3109 3109 3109 3110 3110 3111 3112 3112 3113 3113 3114 3114 3111 3107 3107 3107 3108 3109 3111 3112 3113 3115 3118 3121 3122 3123 3125 3126 3128 3129 3131 3133 3135 3137 3138 3139 3140 3139 3140 3141 3142 3143 3144 3145 3146 3146 3147 3147 3148 3149 3148 3149 3148 3148 3150 3151 3154 3156 3157 3160 3158 3153 3154 3157 3159 3157 3150 3149 3152 3152 3153 3153 3155 3157 3159 3160 3161 3162 3163 3163 3164
3106 3105 3106 3107 3107 3108 3108 3108 3107 3108 3109 3109 3110 3111 3112 3112 3113 3113 3112 3108 3107 3107 3107 3108 3110 3110 3111 3112 3113 3116 3119 3121 3122 3123 3125 3126 3128 3130 3131 3132 3134 3136 3137 3137 3137 3138 3139 3140 3142 3143 3144 3145 3145 3145 3146 3147 3148 3148 3148 3147 3148 3151 3153 3157 3158 3159 3161 3157 3152 3154 3157 3160 3159 3150 3147 3150 3151 3153 3154 3154 3156 3158 3159 3161 3162 3162 3163 3164
3104 3103 3103 3104 3105 3106 3106 3106 3106 3106 3107 3108 3109 3110 3111 3112 3112 3110 3108 3106 3107 3107 3107 3108 3109 3110 3110 3111 3113 3115 3117 3119 3121 3122 3124 3125 3126 3127 3128 3130 3131 3133 3135 3135 3135 3136 3137 3138 3141 3142 3143 3144 3144 3144 3145 3145 3146 3147 3148 3146 3148 3152 3156 3158 3159 3160 3159 3154 3151 3154 3156 3158 3155 3148 3147 3148 3149 3151 3154 3154 3155 3157 3159 3160 3161 3162 3163 3164
3101 3101 3101 3101 3102 3103 3104 3104 3104 3104 3105 3106 3108 3109 3110 3111 3109 3106 3106 3106 3107 3107 3107 3108 3108 3109 3109 3110 3112 3114 3116 3118 3119 3121 3123 3124 3125 3126 3127 3129 3130 3132 3133 3134 3135 3136 3136 3137 3139 3140 3142 3142 3143 3143 3143 3144 3144 3145 3146 3146 3146 3150 3155 3158 3160 3159 3157 3152 3151 3153 3155 3155 3151 3147 3146 3146 3147 3149 3152 3154 3155 3156 3158 3159 3161 3162 3162 3163
3098 3098 3099 3099 3100 3101 3101 3102 3102 3102 3103 3105 3106 3108 3109 3108 3106 3105 3106 3106 3106 3107 3107 3107 3107 3108 3108 3109 3111 3113 3115 3117 3119 3120 3121 3122 3123 3124 3125 3126 3128 3130 3132 3134 3135 3135 3135 3136 3137 3139 3140 3141 3141 3142 3142 3143 3144 3144 3144 3145 3145 3146 3149 3153 3154 3154 3152 3150 3151 3153 3154 3152 3148 3146 3146 3145 3146 3147 3149 3152 3154 3154 3156 3157 3159 3160 3161 3162
3096 3096 3097 3097 3097 3098 3099 3100 3100 3101 3102 3103 3105 3106 3105 3105 3105 3105 3105 3106 3106 3106 3107 3107 3106 3106 3107 3109 3110 3112 3114 3116 3117 3119 3120 3120 3121 3122 3123 3124 3126 3128 3130 3132 3132 3133 3134 3134 3135 3137 3138 3139 3140 3140 3141 3142 3142 3142 3142 3143 3143 3143 3144 3146 3147 3147 3147 3149 3151 3152 3150 3148 3146 3145 3145 3145 3145 3146 3147 3149 3151 3152 3154 3156 3157 3158 3159 3161
3094 3094 3095 3095 3095 3096 3097 3097 3098 3099 3100 3102 3103 3103 3102 3103 3105 3105 3105 3106 3106 3105 3106 3106 3105 3105 3107 3108 3109 3111 3113 3114 3116 3117 3118 3119 3119 3120 3121 3123 3124 3126 3127 3129 3131 3132 3133 3132 3134 3136 3137 3138 3139 3139 3140 3141 3140 3141 3141 3141 3142 3142 3143 3143 3144 3145 3147 3148 3149 3149 3147 3145 3145 3144 3144 3145 3144 3145 3145 3146 3148 3151 3153 3154 3156 3157 3158 3159
3092 3092 3093 3093 3094 3095 3095 3096 3096 3097 3099 3100 3101 3101 3101 3103 3104 3105 3105 3105 3105 3105 3106 3106 3105 3105 3106 3107 3108 3110 3112 3113 3115 3116 3117 3117 3118 3118 3119 3121 3122 3124 3126 3128 3130 3131 3132 3131 3133 3135 3135 3136 3137 3137 3138 3139 3139 3140 3140 3140 3141 3141 3142 3142 3142 3145 3146 3146 3146 3146 3145 3144 3144 3143 3143 3143 3143 3144 3144 3145 3147 3149 3151 3153 3154 3156 3157 3158
3091 3091 3091 3092 3093 3093 3093 3094 3095 3096 3097 3098 3099 3100 3101 3102 3103 3104 3105 3104 3104 3104 3105 3105 3105 3105 3106 3107 3107 3108 3110 3111 3113 3114 3115 3116 3115 3115 3117 3119 3120 3122 3125 3128 3129 3130 3132 3132 3131 3133 3134 3134 3134 3134 3135 3136 3138 3139 3139 3140 3140 3140 3140 3140 3141 3142 3144 3145 3145 3144 3143 3142 3142 3141 3142 3142 3142 3143 3144 3144 3146 3148 3150 3152 3153 3155 3156 3157
3089 3089 3090 3091 3092 3092 3092 3093 3093 3094 3096 3097 3098 3099 3100 3101 3102 3103 3103 3103 3103 3103 3104 3104 3105 3105 3105 3106 3106 3107 3109 3109 3111 3112 3113 3113 3113 3113 3115 3117 3119 3121 3123 3126 3127 3129 3131 3132 3130 3131 3132 3131 3131 3131 3132 3133 3136 3137 3138 3139 3139 3139 3139 3139 3139 3140 3141 3144 3145 3143 3142 3140 3139 3140 3141 3142 3142 3143 3144 3145 3146 3148 3149 3151 3152 3154 3155 3156
3088 3088 3089 3090 3091 3091 3092 3092 3093 3094 3095 3096 3097 3098 3099 3100 3100 3101 3101 3101 3101 3101 3102 3103 3104 3104 3104 3105 3105 3106 3107 3108 3109 3111 3111 3111 3111 3111 3113 3115 3117 3119 3122 3124 3126 3128 3130 3131 3130 3129 3130 3130 3129 3129 3130 3131 3133 3135 3136 3137 3137 3137 3138 3138 3138 3139 3139 3141 3143 3143 3141 3139 3138 3139 3141 3141 3142 3143 3144 3145 3146 3147 3148 3150 3151 3153 3154 3155
3087 3087 3088 3089 3090 3091 3092 3092 3092 3093 3094 3096 3097 3098 3098 3098 3099 3100 3100 3099 3099 3100 3101 3102 3103 3103 3103 3104 3104 3105 3106 3106 3107 3108 3109 3109 3109 3110 3111 3114 3115 3118 3120 3121 3123 3125 3127 3129 3128 3128 3128 3129 3129 3128 3129 3130 3131 3133 3134 3135 3135 3136 3136 3137 3137 3137 3138 3138 3140 3141 3140 3137 3138 3139 3140 3140 3141 3142 3143 3144 3146 3147 3148 3149 3150 3151 3152 3153
3086 3086 3087 3088 3089 3090 3091 3092 3092 3093 3094 3095 3096 3097 3097 3097 3098 3099 3099 3098 3099 3100 3100 3101 3102 3102 3102 3102 3103 3104 3104 3105 3105 3106 3106 3107 3108 3108 3110 3113 3114 3116 3117 3118 3120 3123 3126 3127 3127 3127 3127 3128 3128 3127 3128 3129 3130 3132 3133 3133 3134 3134 3135 3136 3136 3136 3136 3137 3137 3138 3138 3137 3137 3138 3139 3140 3140 3141 3142 3143 3144 3146 3147 3148 3149 3150 3150 3151
3084 3085 3087 3087 3089 3090 3091 3091 3092 3092 3093 3094 3095 3096 3096 3097 3097 3098 3098 3098 3098 3099 3099 3100 3101 3101 3101 3101 3102 3102 3103 3104 3103 3103 3104 3105 3106 3106 3108 3111 3112 3113 3115 3116 3117 3120 3124 3125 3126 3126 3126 3127 3127 3126 3127 3127 3128 3130 3131 3132 3133 3133 3134 3135 3135 3135 3135 3136 3136 3137 3137 3136 3136 3137 3138 3139 3139 3140 3141 3141 3143 3144 3145 3146 3147 3148 3149 3149
3083 3084 3086 3087 3088 3089 3090 3091 3091 3092 3092 3093 3094 3095 3096 3096 3097 3097 3097 3097 3097 3098 3098 3099 3100 3099 3100 3100 3101 3101 3102 3103 3102 3102 3103 3103 3103 3104 3105 3107 3109 3110 3112 3113 3114 3117 3120 3122 3123 3125 3126 3127 3127 3126 3126 3127 3127 3129 3130 3131 3132 3133 3133 3134 3135 3135 3135 3135 3136 3136 3136 3135 3136 3137 3137 3138 3138 3139 3139 3140 3141 3142 3143 3144 3145 3146 3147 3147
3082 3083 3085 3086 3087 3088 3089 3090 3090 3091 3092 3092 3093 3094 3095 3096 3096 3096 3096 3096 3096 3096 3097 3098 3098 3098 3098 3099 3099 3100 3101 3102 3101 3101 3101 3100 3101 3101 3102 3103 3105 3106 3108 3111 3113 3115 3117 3118 3120 3122 3124 3125 3126 3125 3125 3126 3127 3128 3129 3130 3131 3132 3132 3133 3133 3134 3134 3134 3135 3134 3134 3134 3135 3135 3136 3136 3137 3137 3138 3139 3139 3140 3141 3142 3143 3144 3145 3145
3081 3082 3083 3084 3086 3087 3087 3088 3089 3090 3091 3092 3093 3093 3094 3094 3095 3095 3095 3095 3095 3095 3096 3097 3097 3097 3098 3098 3099 3099 3100 3100 3100 3100 3099 3098 3098 3099 3099 3100 3101 3103 3106 3109 3111 3114 3115 3116 3118 3119 3121 3123 3124 3124 3124 3125 3126 3127 3128 3129 3130 3131 3131 3132 3132 3133 3133 3133 3133 3133 3133 3133 3133 3134 3134 3135 3135 3136 3136 3137 3137 3138 3139 3140 3141 3142 3143 3143
3080 3081 3082 3083 3085 3086 3086 3087 3088 3089 3090 3091 3092 3092 3093 3093 3094 3094 3094 3094 3095 3095 3095 3096 3096 3097 3097 3097 3098 3098 3098 3099 3099 3098 3097 3096 3096 3096 3097 3098 3099 3101 3104 3106 3109 3112 3112 3113 3115 3117 3119 3121 3123 3123 3124 3124 3125 3126 3127 3128 3129 3129 3130 3131 3131 3131 3132 3132 3131 3131 3132 3132 3132 3132 3133 3133 3133 3134 3134 3135 3135 3136 3137 3138 3139 3140 3141 3141
3079 3079 3081 3082 3083 3084 3085 3086 3087 3089 3089 3090 3091 3091 3092 3092 3093 3093 3094 3094 3095 3094 3094 3095 3096 3096 3096 3096 3097 3097 3097 3097 3097 3096 3096 3095 3095 3095 3095 3095 3097 3099 3101 3104 3107 3109 3111 3112 3113 3115 3117 3119 3121 3122 3123 3123 3124 3125 3126 3126 3127 3128 3129 3129 3130 3130 3130 3130 3130 3130 3130 3130 3130 3131 3131 3131 3131 3132 3132 3133 3134 3134 3135 3136 3137 3138 3139 3139
3078 3078 3080 3081 3082 3083 3084 3085 3086 3088 3088 3089 3090 3090 3091 3092 3092 3093 3094 3094 3094 3094 3093 3094 3095 3095 3096 3096 3096 3096 3096 3096 3096 3095 3095 3094 3094 3094 3094 3094 3095 3097 3099 3101 3104 3107 3109 3110 3112 3114 3115 3117 3119 3120 3121 3122 3123 3124 3124 3125 3126 3127 3127 3128 3128 3128 3128 3128 3128 3128 3128 3128 3129 3129 3129 3129 3130 3130 3131 3131 3132 3132 3133 3134 3135 3136 3136 3136
3076 3077 3078 3080 3081 3082 3083 3084 3085 3086 3087 3088 3089 3090 3091 3091 3092 3093 3093 3093 3093 3093 3093 3093 3093 3094 3095 3095 3095 3095 3095 3095 3095 3095 3094 3094 3094 3094 3094 3094 3094 3095 3097 3100 3102 3105 3107 3109 3111 3112 3114 3116 3118 3119 3120 3121 3122 3123 3123 3124 3124 3125 3125 3126 3126 3126 3126 3126 3126 3126 3126 3126 3126 3127 3127 3127 3128 3128 3129 3130 3130 3131 3132 3133 3133 3134 3134 3135
3075 3076 3077 3078 3079 3080 3082 3083 3084 3085 3086 3087 3088 3089 3090 3091 3091 3092 3093 3092 3092 3092 3092 3092 3093 3093 3094 3094 3094 3094 3094 3095 3095 3095 3094 3094 3094 3094 3094 3094 3095 3095 3096 3098 3101 3104 3105 3108 3110 3111 3113 3115 3117 3118 3119 3120 3121 3121 3122 3122 3123 3123 3124 3124 3124 3124 3124 3124 3124 3124 3124 3124 3124 3125 3125 3126 3126 3127 3128 3129 3130 3130 3131 3131 3131 3132 3132 3133
3074 3075 3076 3077 3078 3079 3080 3082 3083 3084 3085 3086 3087 3088 3089 3090 3090 3091 3091 3091 3091 3091 3092 3092 3092 3092 3093 3093 3093 3093 3093 3094 3094 3094 3094 3094 3094 3094 3094 3095 3096 3097 3098 3099 3101 3103 3105 3106 3108 3110 3112 3114 3115 3117 3118 3119 3120 3120 3120 3121 3121 3122 3122 3123 3123 3123 3123 3122 3122 3122 3122 3122 3122 3123 3124 3125 3125 3126 3127 3128 3129 3129 3130 3130 3130 3130 3130 3130